When you browse on this site, cookies collect data to enhance your experience and personalize the content and advertising you see.
Visit our Privacy Policy to learn more. By continuing to use the site, you agree to this use of cookies and data.
  • In Spain
  • List of Countries
  • For 7 days
  • Water Temperature
  • Satellite Maps
  • Weather Map
  • Weather Widgets
  • user-avatar
    Login

    Hourly Weather Chervonyi Kut

    Today, 23 March, Saturday

    Time Temperature Precipitation Wind Pressure Humidity
    00:00 +1°C° 0 mm 5 mps 746 mmHg 70%
    01:00 0°C° 0 mm 5 mps 746 mmHg 72%
    02:00 -1°C° 0 mm 5 mps 746 mmHg 74%
    03:00 -1°C° 0 mm 5 mps 746 mmHg 76%
    04:00 -1°C° 0 mm 5 mps 746 mmHg 77%
    05:00 -2°C° 0 mm 5 mps 745 mmHg 79%
    06:00 -2°C° 0 mm 6 mps 746 mmHg 75%
    07:00 -2°C° 0 mm 7 mps 746 mmHg 72%
    08:00 -1°C° 0 mm 8 mps 746 mmHg 68%
    09:00 -1°C° 0.1 mm 8 mps 746 mmHg 67%
    10:00 0°C° 0.1 mm 8 mps 746 mmHg 66%
    11:00 0°C° 0.1 mm 8 mps 746 mmHg 65%
    12:00 +1°C° 0.3 mm 8 mps 746 mmHg 66%
    13:00 +1°C° 0.3 mm 8 mps 746 mmHg 67%
    14:00 +1°C° 0.3 mm 8 mps 746 mmHg 68%
    15:00 +1°C° 0.1 mm 8 mps 746 mmHg 69%
    16:00 +2°C° 0.1 mm 7 mps 747 mmHg 71%
    17:00 +2°C° 0.1 mm 7 mps 747 mmHg 72%
    18:00 +1°C° 0 mm 6 mps 748 mmHg 74%
    19:00 -1°C° 0 mm 6 mps 748 mmHg 75%
    20:00 -1°C° 0 mm 5 mps 749 mmHg 77%
    21:00 -1°C° 0 mm 5 mps 749 mmHg 77%
    22:00 -1°C° 0 mm 5 mps 749 mmHg 76%
    23:00 -1°C° 0 mm 5 mps 749 mmHg 76%

    Tomorrow, 24 March, Sunday

    Time Temperature Precipitation Wind Pressure Humidity
    00:00 -2°C° 0 mm 5 mps 749 mmHg 78%
    01:00 -2°C° 0 mm 4 mps 749 mmHg 81%
    02:00 -2°C° 0 mm 4 mps 749 mmHg 83%
    03:00 -2°C° 0 mm 4 mps 749 mmHg 84%
    04:00 -3°C° 0 mm 4 mps 749 mmHg 85%
    05:00 -3°C° 0 mm 4 mps 750 mmHg 87%
    06:00 -1°C° 0 mm 3 mps 750 mmHg 83%
    07:00 0°C° 0 mm 3 mps 750 mmHg 80%
    08:00 0°C° 0 mm 3 mps 750 mmHg 77%
    09:00 +1°C° 0 mm 3 mps 749 mmHg 71%
    10:00 +2°C° 0 mm 3 mps 749 mmHg 66%
    11:00 +3°C° 0 mm 3 mps 749 mmHg 60%
    12:00 +4°C° 0 mm 3 mps 749 mmHg 57%
    13:00 +5°C° 0 mm 4 mps 748 mmHg 54%
    14:00 +6°C° 0 mm 4 mps 748 mmHg 51%
    15:00 +5°C° 0 mm 4 mps 748 mmHg 54%
    16:00 +5°C° 0 mm 3 mps 748 mmHg 57%
    17:00 +5°C° 0 mm 3 mps 748 mmHg 60%
    18:00 +5°C° 0 mm 3 mps 748 mmHg 65%
    19:00 +4°C° 0 mm 3 mps 748 mmHg 69%
    20:00 +5°C° 0 mm 2 mps 748 mmHg 73%
    21:00 +3°C° 0 mm 3 mps 748 mmHg 74%
    22:00 +3°C° 0 mm 3 mps 747 mmHg 75%
    23:00 +2°C° 0 mm 3 mps 747 mmHg 76%

    Day after tomorrow, 25 March, Monday

    Time Temperature Precipitation Wind Pressure Humidity
    00:00 +2°C° 0 mm 3 mps 747 mmHg 79%
    01:00 +2°C° 0 mm 2 mps 747 mmHg 82%
    02:00 +2°C° 0 mm 2 mps 747 mmHg 85%
    03:00 +1°C° 0 mm 2 mps 747 mmHg 86%
    04:00 +1°C° 0 mm 2 mps 747 mmHg 88%
    05:00 +1°C° 0 mm 2 mps 747 mmHg 90%
    06:00 +2°C° 0 mm 2 mps 747 mmHg 84%
    07:00 +3°C° 0 mm 2 mps 747 mmHg 78%
    08:00 +5°C° 0 mm 1 mps 747 mmHg 72%
    09:00 +7°C° 0 mm 1 mps 747 mmHg 63%
    10:00 +8°C° 0 mm 1 mps 747 mmHg 54%
    11:00 +9°C° 0 mm 1 mps 746 mmHg 45%
    12:00 +9°C° 0 mm 1 mps 746 mmHg 45%
    13:00 +9°C° 0 mm 1 mps 746 mmHg 44%
    14:00 +9°C° 0 mm 1 mps 746 mmHg 44%
    15:00 +8°C° 0 mm 0 mps 745 mmHg 45%
    16:00 +8°C° 0 mm 0 mps 745 mmHg 45%
    17:00 +8°C° 0 mm 0 mps 745 mmHg 46%
    18:00 +9°C° 0 mm 1 mps 745 mmHg 49%
    19:00 +8°C° 0 mm 1 mps 746 mmHg 52%
    20:00 +8°C° 0 mm 1 mps 746 mmHg 55%
    21:00 +7°C° 0 mm 2 mps 746 mmHg 58%
    22:00 +6°C° 0 mm 2 mps 745 mmHg 61%
    23:00 +6°C° 0 mm 2 mps 745 mmHg 64%

    26 March, Tuesday

    Time Temperature Precipitation Wind Pressure Humidity
    00:00 +6°C° 0.1 mm 2 mps 745 mmHg 67%
    01:00 +6°C° 0.1 mm 2 mps 745 mmHg 70%
    02:00 +5°C° 0.1 mm 2 mps 745 mmHg 72%
    03:00 +5°C° 0.4 mm 2 mps 745 mmHg 77%
    04:00 +4°C° 0.4 mm 3 mps 745 mmHg 81%
    05:00 +4°C° 0.4 mm 3 mps 744 mmHg 86%
    06:00 +4°C° 0.2 mm 4 mps 744 mmHg 84%
    07:00 +5°C° 0.2 mm 4 mps 744 mmHg 83%
    08:00 +5°C° 0.2 mm 5 mps 744 mmHg 82%
    09:00 +6°C° 0 mm 5 mps 744 mmHg 80%
    10:00 +6°C° 0 mm 5 mps 744 mmHg 78%
    11:00 +6°C° 0 mm 5 mps 744 mmHg 76%
    12:00 +7°C° 0 mm 5 mps 744 mmHg 76%
    13:00 +7°C° 0 mm 5 mps 743 mmHg 75%
    14:00 +8°C° 0 mm 5 mps 743 mmHg 75%
    15:00 +8°C° 0.2 mm 5 mps 743 mmHg 76%
    16:00 +7°C° 0.2 mm 5 mps 743 mmHg 77%
    17:00 +7°C° 0.2 mm 5 mps 743 mmHg 78%
    18:00 +7°C° 0.2 mm 4 mps 743 mmHg 78%
    19:00 +6°C° 0.2 mm 4 mps 744 mmHg 78%
    20:00 +5°C° 0.2 mm 3 mps 744 mmHg 78%
    21:00 +5°C° 0 mm 4 mps 744 mmHg 76%
    22:00 +5°C° 0 mm 4 mps 744 mmHg 73%
    23:00 +3°C° 0 mm 5 mps 744 mmHg 71%

    27 March, Wednesday

    Time Temperature Precipitation Wind Pressure Humidity
    00:00 +2°C° 0 mm 5 mps 745 mmHg 72%
    01:00 +1°C° 0 mm 6 mps 745 mmHg 73%
    02:00 -1°C° 0 mm 6 mps 745 mmHg 74%
    03:00 -1°C° 0 mm 5 mps 746 mmHg 73%
    04:00 -1°C° 0 mm 5 mps 746 mmHg 73%
    05:00 -2°C° 0 mm 4 mps 747 mmHg 72%
    06:00 -1°C° 0 mm 5 mps 747 mmHg 64%
    07:00 0°C° 0 mm 5 mps 748 mmHg 57%
    08:00 +1°C° 0 mm 5 mps 748 mmHg 49%
    09:00 +2°C° 0 mm 6 mps 748 mmHg 47%
    10:00 +3°C° 0 mm 6 mps 748 mmHg 45%
    11:00 +4°C° 0 mm 6 mps 748 mmHg 43%
    12:00 +4°C° 0.1 mm 7 mps 748 mmHg 43%
    13:00 +4°C° 0.1 mm 7 mps 748 mmHg 44%
    14:00 +4°C° 0.1 mm 7 mps 748 mmHg 45%
    15:00 +4°C° 0.1 mm 7 mps 748 mmHg 47%
    16:00 +3°C° 0.1 mm 7 mps 748 mmHg 50%
    17:00 +3°C° 0.1 mm 6 mps 749 mmHg 52%
    18:00 +2°C° 0 mm 5 mps 749 mmHg 57%
    19:00 +1°C° 0 mm 5 mps 750 mmHg 61%
    20:00 0°C° 0 mm 4 mps 751 mmHg 66%
    21:00 0°C° 0 mm 3 mps 751 mmHg 69%
    22:00 0°C° 0 mm 3 mps 751 mmHg 71%
    23:00 -1°C° 0 mm 3 mps 752 mmHg 74%

    28 March, Thursday

    Time Temperature Precipitation Wind Pressure Humidity
    00:00 -1°C° 0 mm 3 mps 752 mmHg 72%
    01:00 -1°C° 0 mm 3 mps 752 mmHg 71%
    02:00 -3°C° 0 mm 4 mps 753 mmHg 69%
    03:00 -3°C° 0 mm 4 mps 753 mmHg 69%
    04:00 -3°C° 0 mm 4 mps 753 mmHg 68%
    05:00 -3°C° 0 mm 4 mps 753 mmHg 68%
    06:00 -2°C° 0 mm 4 mps 754 mmHg 65%
    07:00 -1°C° 0 mm 5 mps 754 mmHg 61%
    08:00 -1°C° 0 mm 5 mps 755 mmHg 58%
    09:00 0°C° 0 mm 5 mps 755 mmHg 55%
    10:00 +1°C° 0 mm 5 mps 755 mmHg 53%
    11:00 +2°C° 0 mm 5 mps 755 mmHg 50%
    12:00 +3°C° 0 mm 5 mps 755 mmHg 48%
    13:00 +3°C° 0 mm 5 mps 755 mmHg 46%
    14:00 +3°C° 0 mm 5 mps 754 mmHg 44%
    15:00 +3°C° 0 mm 5 mps 755 mmHg 42%
    16:00 +2°C° 0 mm 5 mps 755 mmHg 41%
    17:00 +2°C° 0 mm 5 mps 755 mmHg 39%
    18:00 +1°C° 0 mm 4 mps 755 mmHg 45%
    19:00 +1°C° 0 mm 3 mps 755 mmHg 51%
    20:00 +1°C° 0 mm 2 mps 756 mmHg 57%
    21:00 +1°C° 0 mm 2 mps 756 mmHg 59%
    22:00 -1°C° 0 mm 2 mps 756 mmHg 61%
    23:00 -1°C° 0 mm 2 mps 756 mmHg 63%
    Show more